Regional Weather Roundup
Issued by NWS

Home | Current Version | Previous Version | Graphics & Text | Print | Product List | Glossary On
Versions: 1 2 3 4 5 6 7 8 9 10 11 12 13 14 15 16 17 18 19 20 21 22 23 24 25 26 27 28 29 30 31 32 33 34 35 36 37 38 39 40 41 42 43 44 45 46 47 48 49 50
368
ASUS43 KOAX 062102
RWRNE

WEATHER ROUNDUP FOR NEBRASKA
NATIONAL WEATHER SERVICE OMAHA NE
300 PM CST SAT FEB 06 2016

NOTES: SATELLITE DATA IS BEING USED TO AUGMENT CLOUD COVER ABOVE
       12000 FEET.
       "FAIR" INDICATES FEW OR NO CLOUDS BELOW 12,000 FEET WITH NO
       SIGNIFICANT WEATHER AND/OR OBSTRUCTIONS TO VISIBILITY.

  * THESE STATIONS DO NOT REPORT WEATHER SUCH AS RAIN...SNOW OR FOG.

NEZ001>004-019>022-054>056-062200-
NEBRASKA PANHANDLE

CITY           SKY/WX    TMP DP  RH WIND       PRES   REMARKS
SCOTTSBLUFF    CLOUDY    41  26  55 W23G29    30.04F
ALLIANCE       CLOUDY    37  27  67 W25       29.97F WCI  25
CHADRON        CLOUDY    46  29  51 SW14      29.93F
SIDNEY         CLOUDY    40  29  64 W13       30.05F WCI  32
$$

NEZ057>060-069>072-079>082-062200-
SOUTHWEST NEBRASKA

CITY           SKY/WX    TMP DP  RH WIND       PRES   REMARKS
NORTH PLATTE   CLOUDY    38  24  57 W14       30.05F WCI  30
IMPERIAL       CLOUDY    36  24  62 W12       30.08F WCI  28
MCCOOK         CLOUDY    37  22  54 SW12      30.10F WCI  29
$$

NEZ005>010-023>029-035>040-094-062200-
NORTH CENTRAL NEBRASKA

CITY           SKY/WX    TMP DP  RH WIND       PRES   REMARKS
VALENTINE      CLOUDY    43  27  53 SW5       29.91F
BROKEN BOW     SUNNY     38  27  64 W16       30.02F WCI  29
ORD            CLOUDY    39  26  59 SW14      30.00F WCI  31
$$

NEZ041-046>049-061>064-073>077-083>087-062200-
SOUTH CENTRAL NEBRASKA

CITY           SKY/WX    TMP DP  RH WIND       PRES   REMARKS
GRAND ISLAND   CLOUDY    37  24  59 SW22G29   30.06F WCI  26
HASTINGS       CLOUDY    33  22  63 SW12G18   30.08F WCI  24
$$

NEZ011>018-030>034-042>045-062200-
NORTHEAST NEBRASKA

CITY           SKY/WX    TMP DP  RH WIND       PRES   REMARKS
NORFOLK        CLOUDY    38  26  62 SW13G21   30.00F WCI  30
COLUMBUS *     CLOUDY    37  21  52 SW14G20   30.06S WCI  29
TEKAMAH        CLOUDY    35  28  75 S15       30.06F WCI  25
$$

NEZ050>053-065>068-078-088>093-062200-
SOUTHEAST NEBRASKA

CITY           SKY/WX    TMP DP  RH WIND       PRES   REMARKS
LINCOLN        SUNNY     38  26  62 S15       30.12F WCI  29
OMAHA EPPLEY   PTSUNNY   41  27  57 S15G22    30.10F
FALLS CITY     SUNNY     48  30  49 SW14      30.17F
$$

NEZ044-045-051>053-067-062200-
OMAHA AREA

CITY           SKY/WX    TMP DP  RH WIND       PRES   REMARKS
OMAHA EPPLEY   PTSUNNY   41  27  57 S15G22    30.10F
OFFUTT AFB     SUNNY     39  28  63 S8        30.11F WCI  34
$$




USA.gov is the U.S. government's official web portal to all federal, state and local government web resources and services.